{"data":{"norad_id":59404,"epoch":"2026-05-24T19:57:26.182656Z","epoch_age_seconds":88879,"freshness":"FRESH","line1":"1 59404U 24064G   26144.83155304 -.00000414  00000+0 -55197-5 0  9996","line2":"2 59404  43.0009 295.1046 0001282 269.5927  90.4778 15.27575598121205","mean_motion":15.27575598,"eccentricity":0.0001282,"inclination_deg":43.0009,"raan_deg":295.1046,"arg_perigee_deg":269.5927,"mean_anomaly_deg":90.4778,"bstar":-5.5197e-6,"rev_number":12120,"period_min":94.26702036124,"perigee_km":482.18267149558,"apogee_km":483.94188299026,"semimajor_km":6861.1992772429,"source":"CELESTRAK","updated_at":"2026-05-25T13:38:18.939945Z"}}